Weather History for KBKS - March, 2013

Change the Weather History Date:

Saturday, March 9, 2013

  Actual Average (KNQI) Record (KNQI)
Temperature  
Mean Temperature 80 °F -  
Max Temperature 89 °F 73 °F 90 °F (2006)
Min Temperature 72 °F 55 °F 37 °F (1998)
Cooling Degree Days 16    
Growing Degree Days 30 (Base 50)    
Moisture  
Dew Point 66 °F    
Average Humidity 69    
Maximum Humidity 84    
Minimum Humidity 41    
Precipitation  
Precipitation 0.00 in - - ()
Sea Level Pressure  
Sea Level Pressure 29.80 in    
Wind  
Wind Speed 16 mph (SSE)    
Max Wind Speed 25 mph    
Max Gust Speed 37 mph    
Visibility 10 miles    
Events      
Averages and records for this station are not official NWS values.
T = Trace of Precipitation, MM = Missing Value Source: NWS Daily Summary

Daily Weather History Graph

Daily Weather History Graph

Search for Another Location

Airport or City:

Trip Planner

Search our weather history database for the weather conditions in past years. The results will help you decide how hot, cold, wet, or windy it might be!

Date:

Astronomy

Mar. 09, 2013 Rise Set
Actual Time 6:48 AM CST 6:38 PM CST
Civil Twilight 6:24 AM CST 7:01 PM CST
Nautical Twilight 5:57 AM CST 7:28 PM CST
Astronomical Twilight 5:30 AM CST 7:55 PM CST
Moon 5:03 AM CST (3/9) 4:48 PM CST (3/9)
Length of Visible Light 12h 36m
Length of Day
11h 50m
Waning Crescent, 5% of the Moon is Illuminated
Mar 9
Waning Crescent
Mar 11
New
Mar 19
First Quarter
Mar 27
Full
Apr 2
Last Quarter

Hourly Weather History & Observations

Time (CST) Temp. Heat Index Dew Point Humidity Pressure Visibility Wind Dir Wind Speed Gust Speed Precip Events Conditions
12:15 AM 72.7 °F - 66.7 °F 82% 29.99 in 10.0 mi SSE 13.8 mph 20.7 mph N/A   Mostly Cloudy
12:35 AM 72.7 °F - 66.9 °F 82% 29.98 in 10.0 mi SE 16.1 mph 20.7 mph N/A   Mostly Cloudy
12:55 AM 72.5 °F - 66.7 °F 82% 29.98 in 10.0 mi SSE 15.0 mph 21.9 mph N/A   Scattered Clouds
1:15 AM 72.5 °F - 66.7 °F 82% 29.95 in 10.0 mi SE 15.0 mph 23.0 mph N/A   Scattered Clouds
1:35 AM 72.5 °F - 66.7 °F 82% 29.95 in 10.0 mi SSE 12.7 mph 20.7 mph N/A   Mostly Cloudy
1:55 AM 72.5 °F - 66.7 °F 82% 29.95 in 10.0 mi SE 11.5 mph 17.3 mph N/A   Overcast
2:15 AM 72.5 °F - 67.1 °F 83% 29.94 in 10.0 mi SSE 13.8 mph 19.6 mph N/A   Overcast
2:35 AM 72.5 °F - 66.9 °F 83% 29.92 in 10.0 mi SE 11.5 mph 20.7 mph N/A   Overcast
2:55 AM 72.5 °F - 67.1 °F 83% 29.91 in 10.0 mi SE 13.8 mph 19.6 mph N/A   Mostly Cloudy
3:15 AM 72.5 °F - 67.1 °F 83% 29.90 in 10.0 mi SSE 12.7 mph - N/A   Overcast
3:35 AM 72.5 °F - 67.1 °F 83% 29.91 in 10.0 mi SSE 12.7 mph - N/A   Overcast
3:55 AM 72.3 °F - 67.1 °F 84% 29.89 in 10.0 mi SE 13.8 mph - N/A   Overcast
4:15 AM 72.5 °F - 67.1 °F 83% 29.89 in 10.0 mi SSE 13.8 mph 18.4 mph N/A   Overcast
4:35 AM 72.5 °F - 67.1 °F 83% 29.89 in 10.0 mi SSE 12.7 mph - N/A   Overcast
4:55 AM 72.5 °F - 67.1 °F 83% 29.88 in 10.0 mi SSE 11.5 mph - N/A   Overcast
5:15 AM 72.5 °F - 67.1 °F 83% 29.88 in 10.0 mi SSE 13.8 mph - N/A   Overcast
5:35 AM 72.5 °F - 67.1 °F 83% 29.88 in 10.0 mi SSE 11.5 mph - N/A   Overcast
5:55 AM 72.5 °F - 67.1 °F 83% 29.88 in 10.0 mi SSE 10.4 mph - N/A   Overcast
6:15 AM 72.7 °F - 67.3 °F 83% 29.88 in 10.0 mi SSE 11.5 mph - N/A   Overcast
6:35 AM 72.9 °F - 67.5 °F 83% 29.88 in 10.0 mi SSE 10.4 mph - N/A   Overcast
6:55 AM 73.0 °F - 67.5 °F 83% 29.88 in 10.0 mi SSE 8.1 mph - N/A   Overcast
7:15 AM 73.0 °F - 67.5 °F 83% 29.89 in 10.0 mi SSE 8.1 mph - N/A   Overcast
7:35 AM 73.4 °F - 67.6 °F 82% 29.89 in 10.0 mi SSE 9.2 mph - N/A   Overcast
7:55 AM 73.8 °F - 67.6 °F 81% 29.90 in 10.0 mi SSE 9.2 mph - N/A   Overcast
8:15 AM 74.7 °F - 67.8 °F 79% 29.91 in 10.0 mi SSE 11.5 mph - N/A   Overcast
8:35 AM 75.4 °F - 68.0 °F 78% 29.90 in 10.0 mi SSE 13.8 mph - N/A   Overcast
8:55 AM 75.7 °F - 68.0 °F 77% 29.90 in 10.0 mi SSE 16.1 mph 20.7 mph N/A   Overcast
9:15 AM 76.1 °F - 68.0 °F 76% 29.91 in 10.0 mi SSE 16.1 mph 21.9 mph N/A   Overcast
9:35 AM 76.1 °F - 67.6 °F 75% 29.90 in 10.0 mi SSE 15.0 mph 20.7 mph N/A   Overcast
9:55 AM 77.0 °F - 67.5 °F 72% 29.90 in 10.0 mi South 18.4 mph 24.2 mph N/A   Overcast
10:15 AM 77.7 °F - 67.5 °F 71% 29.89 in 10.0 mi SSE 18.4 mph 23.0 mph N/A   Overcast
10:35 AM 78.3 °F - 67.5 °F 69% 29.89 in 10.0 mi SSE 16.1 mph 24.2 mph N/A   Overcast
10:55 AM 79.2 °F - 67.1 °F 66% 29.88 in 10.0 mi South 21.9 mph 27.6 mph N/A   Overcast
11:15 AM 80.1 °F 82.3 °F 67.1 °F 64% 29.86 in 10.0 mi South 18.4 mph 26.5 mph N/A   Overcast
11:35 AM 81.3 °F 83.6 °F 66.7 °F 61% 29.85 in 10.0 mi SSE 21.9 mph 28.8 mph N/A   Overcast
11:55 AM 82.6 °F 84.9 °F 66.4 °F 58% 29.83 in 10.0 mi SSE 21.9 mph 28.8 mph N/A   Overcast
12:15 PM 83.5 °F 85.7 °F 66.4 °F 56% 29.81 in 10.0 mi SSE 21.9 mph 31.1 mph N/A   Overcast
12:35 PM 83.5 °F 85.5 °F 65.8 °F 55% 29.80 in 7.0 mi SSE 23.0 mph 31.1 mph N/A   Overcast
12:55 PM 84.0 °F 86.0 °F 65.7 °F 54% 29.79 in 7.0 mi SSE 19.6 mph 28.8 mph N/A   Overcast
1:15 PM 85.1 °F 87.1 °F 65.8 °F 52% 29.78 in 10.0 mi SSE 20.7 mph 31.1 mph N/A   Overcast
1:35 PM 86.2 °F 88.2 °F 65.3 °F 50% 29.77 in 10.0 mi SSE 24.2 mph 32.2 mph N/A   Overcast
1:55 PM 87.8 °F 89.1 °F 63.9 °F 45% 29.75 in 10.0 mi SSE 20.7 mph 32.2 mph N/A   Mostly Cloudy
2:15 PM 88.2 °F 89.3 °F 63.5 °F 44% 29.73 in 10.0 mi SSE 25.3 mph 31.1 mph N/A   Scattered Clouds
2:35 PM 88.7 °F 89.8 °F 63.5 °F 43% 29.71 in 10.0 mi SSE 24.2 mph 31.1 mph N/A   Scattered Clouds
2:55 PM 89.2 °F 90.2 °F 63.3 °F 42% 29.70 in 10.0 mi South 25.3 mph 31.1 mph N/A   Scattered Clouds
3:15 PM 89.4 °F 90.2 °F 63.1 °F 41% 29.68 in 7.0 mi SSE 20.7 mph 32.2 mph N/A   Scattered Clouds
3:35 PM 88.9 °F 90.0 °F 63.9 °F 43% 29.69 in 7.0 mi SSE 25.3 mph 32.2 mph N/A   Scattered Clouds
3:55 PM 88.0 °F 89.3 °F 64.4 °F 45% 29.68 in 7.0 mi SSE 25.3 mph 36.8 mph N/A   Scattered Clouds
4:15 PM 87.4 °F 88.8 °F 64.0 °F 46% 29.68 in 10.0 mi SSE 25.3 mph 32.2 mph N/A   Scattered Clouds
4:35 PM 87.1 °F 88.3 °F 64.0 °F 46% 29.68 in 10.0 mi SSE 24.2 mph 32.2 mph N/A   Clear
4:55 PM 87.1 °F 88.6 °F 64.4 °F 47% 29.67 in 10.0 mi SSE 19.6 mph 26.5 mph N/A   Scattered Clouds
5:15 PM 85.6 °F 87.1 °F 64.4 °F 49% 29.66 in 7.0 mi SE 20.7 mph 31.1 mph N/A   Scattered Clouds
5:35 PM 85.1 °F 86.6 °F 64.6 °F 50% 29.66 in 10.0 mi SE 18.4 mph 29.9 mph N/A   Scattered Clouds
5:55 PM 83.5 °F 85.3 °F 65.3 °F 54% 29.67 in 7.0 mi SSE 21.9 mph 26.5 mph N/A   Clear
6:15 PM 81.9 °F 83.9 °F 65.7 °F 58% 29.66 in 7.0 mi SE 18.4 mph 26.5 mph N/A   Scattered Clouds
6:35 PM 80.4 °F 82.4 °F 66.0 °F 61% 29.67 in 10.0 mi SSE 21.9 mph 28.8 mph N/A   Scattered Clouds
6:55 PM 79.3 °F - 66.2 °F 64% 29.67 in 10.0 mi SE 19.6 mph 26.5 mph N/A   Scattered Clouds
7:15 PM 78.4 °F - 66.6 °F 67% 29.67 in 10.0 mi SE 18.4 mph 28.8 mph N/A   Clear
7:35 PM 77.5 °F - 66.7 °F 69% 29.67 in 10.0 mi SE 16.1 mph 23.0 mph N/A   Clear
7:55 PM 77.0 °F - 66.7 °F 70% 29.68 in 10.0 mi SE 16.1 mph 28.8 mph N/A   Clear
8:15 PM 76.3 °F - 67.1 °F 73% 29.69 in 10.0 mi SE 13.8 mph 21.9 mph N/A   Scattered Clouds
8:35 PM 76.1 °F - 67.1 °F 74% 29.70 in 10.0 mi SE 17.3 mph 23.0 mph N/A   Overcast
8:55 PM 76.1 °F - 67.1 °F 74% 29.70 in 10.0 mi SSE 15.0 mph 20.7 mph N/A   Overcast
9:15 PM 75.2 °F - 66.7 °F 75% 29.70 in 10.0 mi SSE 18.4 mph 24.2 mph N/A   Mostly Cloudy
9:35 PM 74.7 °F - 66.2 °F 75% 29.71 in 10.0 mi SSE 13.8 mph 18.4 mph N/A   Scattered Clouds
9:55 PM 74.3 °F - 65.7 °F 74% 29.70 in 10.0 mi SSE 16.1 mph 20.7 mph N/A   Scattered Clouds
10:15 PM 74.3 °F - 66.2 °F 76% 29.70 in 10.0 mi SSE 13.8 mph 20.7 mph N/A   Scattered Clouds
10:35 PM 74.1 °F - 67.1 °F 79% 29.69 in 10.0 mi SSE 19.6 mph 24.2 mph N/A   Scattered Clouds
10:55 PM 74.1 °F - 67.5 °F 80% 29.68 in 10.0 mi SSE 17.3 mph 24.2 mph N/A   Scattered Clouds
11:15 PM 74.3 °F - 68.0 °F 81% 29.68 in 10.0 mi SSE 21.9 mph 26.5 mph N/A   Mostly Cloudy
11:35 PM 74.5 °F - 68.0 °F 80% 29.68 in 10.0 mi SSE 19.6 mph 25.3 mph N/A   Scattered Clouds
11:55 PM 74.3 °F - 68.0 °F 81% 29.67 in 10.0 mi SSE 16.1 mph 26.5 mph N/A   Clear